Regional Weather Roundup
Issued by NWS Cleveland, OH

Home | Current Version | Previous Version | Graphics & Text | Print | Product List | Glossary On
Versions: 1 2 3 4 5 6 7 8 9 10 11 12 13 14 15 16 17 18 19 20 21 22 23 24 25 26 27 28 29 30 31 32 33 34 35 36 37 38 39 40 41 42 43 44 45 46 47 48 49 50
000
ASUS41 KCLE 172010
RWRCLE
OHIO REGIONAL WEATHER ROUNDUP
NATIONAL WEATHER SERVICE CLEVELAND, OH
300 PM EST SUN DEC 17 2017

NOTE: "FAIR" INDICATES FEW OR NO CLOUDS BELOW 12,000 FEET WITH NO
SIGNIFICANT WEATHER AND/OR OBSTRUCTIONS TO VISIBILITY.

OHZ001>008-015>018-024>027-034-035-043-044-172100-
   NORTHWEST OHIO

CITY           SKY/WX    TMP DP  RH WIND       PRES   REMARKS
DEFIANCE       CLOUDY    33  31  92 E3        30.06F FOG
FINDLAY        CLOUDY    41  32  70 S9        30.07F
TOLEDO EXPRESS CLOUDY    34  31  88 SE6       30.06F FOG     WCI  29
TOLEDO EXEC    CLOUDY    35  30  82 S3        30.10S HAZE
LIMA           LGT RAIN  39  35  86 S6        30.07F
$$

OHZ009>014-019>023-028>033-038-089-172100-
   NORTHEAST OHIO

CITY           SKY/WX    TMP DP  RH WIND       PRES   REMARKS
CLE-HOPKINS    CLOUDY    37  31  78 CALM      30.11S
CLE-LAKEFRONT  MOSUNNY   37  29  72 SE7       30.08F
CUY CO. ARPT   CLOUDY    36  32  87 SE7       30.10S
LORAIN-ELYRIA  CLOUDY    35  27  72 S5        30.09S
ASHTABULA      CLOUDY    32  27  81 SE5       30.11F WCI  27
AKRON-CANTON   CLOUDY    38  29  70 SW9       30.09R
WOOSTER        LGT RAIN  37  30  75 S7        30.10R
MANSFIELD      MIX PCPN  37  33  85 SW8       30.10R
YOUNGSTOWN     CLOUDY    36  29  75 E6        30.09S
$$

OHZ042-051>053-060>062-070>072-077>081-172100-
  SOUTHWEST OHIO

CITY           SKY/WX    TMP DP  RH WIND       PRES   REMARKS
CINC-COVINGTON CLOUDY    45  33  63 S5        30.09F
CINC-LUNKEN    CLOUDY    47  34  60 S5        30.12F
HAMILTON       CLOUDY    46  32  58 CALM      30.11F
DAYTON         CLOUDY    42  36  79 S8        30.10F
WRIGHT-PAT AFB CLOUDY    42  35  76 SW7       30.10F
DAYTON GENERAL LGT RAIN  42  33  70 W3        30.09F
WILMINGTON     CLOUDY    43  33  68 S7        30.11F
$$

OHZ036-037-039>041-045>050-054>059-063>069-073>076-082>088-172100-
  CENTRAL AND SOUTHEAST OHIO

CITY           SKY/WX    TMP DP  RH WIND       PRES   REMARKS
COLUMBUS       CLOUDY    42  34  73 SW3       30.14R
OSU AIRPORT    LGT RAIN  40  36  86 SW5       30.13R
BOLTON FIELD   LGT RAIN  39  34  81 SW6       30.13S
RICKENBACK AFB CLOUDY    42  32  69 SW3       30.13S
NEWARK         CLOUDY    39  33  79 SW3       30.13R
MARION         LGT RAIN  37  33  85 S8        30.10F FOG
LANCASTER      CLOUDY    42  31  64 SW5       30.13R
ZANESVILLE     CLOUDY    40  33  76 CALM      30.14R
NEW PHILLY     NOT AVBL
$$




USA.gov is the U.S. government's official web portal to all federal, state and local government web resources and services.